Weather in Charlston

United States     38°20′51″N   81°37′42″W
temp.,
°C
wind,
m/s
gust,
m/s
humid.,
%
clouds,
%
prec.,
mm/h
press.,
hPa
HPBL,
m
18 september, sat
sat1823:00+23s116381 0.0 101911
02:00+19s117653 0.0 101912
05:00+18s117917 0.0 102011
08:00+18s11844 0.1 102113
11:00+27ne12525 0.0 1021637
14:00+30nne12425 0.0 10181579
17:00+30n2241100 0.0 10172058
20:00+23nne1266100 0.0 101811
19 september, sun
sun1923:00+21e1175100 0.0 102013
02:00+19ene1179100 0.0 102011
05:00+18ne118592 0.0 102011
08:00+18ne1282100 0.0 102134
11:00+27ene2449100 0.0 1020511
14:00+31ene2237100 0.0 10181698
17:00+31ne2239100 0.0 10161625
20:00+25e1158100 0.0 101814
20 september, mon
mon2023:00+22se1169100 0.0 101913
02:00+22s1166100 0.0 101914
05:00+19se2278100 0.0 102029
08:00+19se2681100 0.0 1020144
11:00+23sse3870100 0.0 1021533
14:00+28s3646100 0.0 10201907
17:00+28sse3748100 0.0 10192056
20:00+20s2487100 0.3 1021117
21 september, tue
tue2123:00+19e2396100 0.4 102169
02:00+19se1394100 0.4 102193
05:00+18sse2991100 0.3 1022589
08:00+17ese1598100 5.1 1022251
11:00+17se31297100 5.5 1022577
14:00+23sse4868100 6.3 1020839
17:00+20sse2108761 0.2 1019560
20:00+20sse298496 0.2 1018439
22 september, wed
wed2223:00+18se2792100 0.1 1017254
02:00+18s289676 1.4 1016360
05:00+18s2896100 1.6 1014353
08:00+18wsw31098100 5.1 1014697
11:00+15wnw4898100 7.4 1017583
14:00+15nw379399 7.7 1018627
17:00+16nnw366813 0.1 10181038
20:00+12ene118624 0.1 101910